Theta_e
298 298 298 298 298 299 299 299 300 300 300 301 301 302 303 304 307 307 308 318 316 318 317 320 323 321 331 332 332 328 321 323 326 328 330 331 330 331 332 331 332 332 332 332 331
298 298 298 298 298 298 298 298 298 299 299 300 300 301 301 302 304 307 314 313 314 315 317 318 319 326 333 332 334 333 322 322 323 326 328 329 330 331 331 332 332 332 332 332 332
298 298 298 298 298 298 298 298 298 298 298 299 299 300 300 300 303 309 313 314 314 315 315 318 318 321 328 328 330 330 329 325 325 326 327 329 329 330 331 331 333 332 332 332 332
299 299 299 299 299 299 299 299 299 299 299 299 298 299 299 300 310 316 315 314 314 315 313 315 316 316 316 326 326 327 328 328 327 326 327 327 329 330 331 331 331 331 331 330 332
300 300 301 301 301 301 300 300 300 300 300 300 299 299 299 304 303 312 309 312 314 314 313 314 314 315 314 317 325 325 324 326 328 328 328 328 328 329 330 331 331 331 330 329 329
301 301 301 301 301 301 301 301 301 301 301 300 300 300 304 307 304 306 309 310 311 315 314 314 314 315 316 316 317 321 326 326 326 328 329 329 329 329 330 330 329 329 330 329 329
301 301 301 301 301 300 301 301 301 301 301 302 302 302 307 305 302 305 310 311 312 313 314 315 317 319 318 316 318 320 321 322 325 326 325 326 327 327 327 328 329 330 329 329 329
301 301 301 301 300 300 300 300 300 301 302 306 306 303 307 302 306 306 305 309 310 311 311 313 314 314 316 320 320 319 319 321 322 323 325 325 327 327 328 328 329 329 329 329 329
302 302 302 301 300 300 300 302 302 304 306 307 308 307 308 311 310 310 308 307 309 309 309 310 312 313 315 316 317 319 320 321 322 323 324 325 327 327 328 328 328 328 329 329 329
301 301 301 301 300 300 305 307 307 308 309 311 311 311 309 311 310 310 311 311 311 309 308 309 311 311 312 313 319 321 322 322 322 323 325 325 326 326 327 327 327 328 329 329 329
300 301 301 300 300 304 307 307 308 309 310 309 309 313 313 313 312 309 309 308 309 310 308 310 309 312 313 313 316 319 322 323 323 323 324 324 325 325 326 327 326 327 327 328 328
300 301 301 300 301 309 308 308 307 306 306 307 307 307 307 308 309 308 308 307 308 308 311 311 310 311 314 315 315 317 317 318 320 323 323 324 324 325 326 326 326 327 327 328 329
301 300 301 301 305 306 308 307 307 307 306 306 307 308 308 307 308 307 307 308 307 307 308 311 313 313 313 315 316 315 316 316 317 318 320 321 321 322 323 325 327 328 328 328 328
301 301 301 302 307 309 307 307 307 307 305 308 311 311 309 308 308 308 308 308 308 307 307 307 310 315 314 313 316 316 316 317 317 318 318 320 322 322 322 324 325 326 327 328 327
301 301 303 307 308 309 308 308 307 307 311 310 309 308 308 309 311 312 312 311 310 309 308 307 308 310 313 314 315 316 317 317 318 318 318 320 320 322 322 325 324 323 326 327 327
301 303 306 307 309 307 307 308 308 310 311 309 308 307 307 308 308 310 313 313 313 310 310 310 310 308 308 310 315 315 316 317 317 317 318 319 320 321 321 322 324 324 326 326 326
301 306 307 308 309 308 308 308 309 309 308 306 306 308 308 309 310 310 310 313 312 313 314 314 314 310 310 309 310 312 313 315 317 318 319 318 321 322 321 323 324 323 325 327 328
302 307 308 310 309 306 309 309 306 308 308 307 306 308 307 308 309 309 310 309 311 312 313 312 312 314 315 309 309 310 313 315 318 319 318 319 320 321 322 323 324 324 326 331 335
303 310 310 310 309 307 309 308 308 309 308 306 306 306 307 308 309 310 310 310 308 310 311 313 313 313 312 312 311 310 310 315 316 318 318 319 319 320 320 321 324 324 327 337 338
303 308 310 310 308 309 308 309 309 308 308 308 308 308 309 309 309 309 310 310 311 311 311 311 311 310 310 311 312 314 312 315 315 317 319 321 320 321 323 324 323 325 328 337 338
308 311 311 311 310 310 308 309 307 307 307 308 308 308 309 309 307 309 309 310 312 311 310 309 310 310 310 311 312 315 312 312 314 315 319 321 321 322 324 324 324 325 335 336 337
309 310 310 308 310 309 308 308 307 307 308 308 308 308 309 308 309 309 310 311 310 310 309 311 313 315 313 312 312 313 314 312 314 317 318 319 321 327 329 326 325 333 335 336 336
306 310 310 309 309 309 309 307 307 308 308 308 308 308 308 309 310 309 310 309 309 311 311 312 312 314 315 314 313 314 317 315 315 318 317 320 320 321 324 327 327 334 335 336 336
308 310 308 308 308 308 307 308 308 308 307 307 307 308 309 308 309 310 310 310 310 311 311 311 311 312 315 316 316 318 319 319 316 317 318 320 321 320 323 326 333 335 335 335 335
309 307 307 306 306 306 308 309 309 309 308 308 308 308 307 309 308 308 309 310 310 311 312 311 314 313 313 315 315 315 316 316 318 318 319 320 322 322 327 335 335 335 335 335 335
308 307 307 307 306 307 309 310 309 309 308 309 309 309 309 309 309 310 309 308 308 311 311 312 316 314 316 314 315 315 314 315 317 319 320 318 321 324 327 335 334 334 334 334 335
305 306 306 306 306 306 308 309 309 308 308 308 308 310 310 310 309 309 309 309 308 309 308 312 312 314 315 316 315 316 314 313 317 319 321 318 320 328 331 333 332 333 334 334 334
Wind_Speed
17 18 18 18 17 18 19 18 19 18 15 15 15 16 20 25 29 27 31 29 21 19 18 11 8 14 18 19 19 18 3 6 12 11 16 28 13 22 14 11 14 8 11 16 19
16 18 18 19 20 19 19 20 20 19 20 19 16 16 17 21 27 34 32 31 28 21 19 23 19 15 22 18 16 16 8 14 13 14 17 20 15 27 22 14 8 19 18 15 21
17 18 18 19 20 20 21 19 19 20 19 19 19 17 15 18 23 17 13 20 24 25 26 23 20 22 26 27 24 23 21 15 19 28 30 23 23 28 21 14 17 11 11 24 30
17 18 19 20 20 20 21 21 21 20 19 20 20 19 16 12 6 5 1 10 11 22 24 26 23 25 10 19 29 19 28 27 26 32 33 22 30 25 28 24 30 30 36 32 24
19 19 20 21 21 21 20 20 20 21 22 21 20 20 19 11 26 12 15 13 13 11 28 24 25 20 14 10 23 25 20 28 32 33 36 37 30 27 32 38 40 38 37 40 36
21 22 23 23 23 23 22 22 21 20 20 23 24 22 16 17 16 13 13 20 24 10 16 23 21 24 18 17 21 24 23 29 30 34 35 28 28 31 33 34 33 32 30 33 33
20 21 21 21 22 23 24 24 22 21 23 20 20 19 20 33 23 18 23 19 16 20 20 22 23 20 7 13 33 28 19 19 25 29 25 29 28 32 35 33 34 35 38 41 37
22 23 24 24 25 27 26 24 21 18 20 18 18 13 14 24 15 17 18 20 19 20 21 20 22 19 13 18 22 17 13 21 21 20 30 21 41 20 32 35 31 41 44 42 37
26 28 30 30 29 29 28 25 19 13 18 17 19 9 13 11 16 8 8 26 21 21 21 19 19 20 15 6 7 13 20 22 24 23 17 13 30 21 33 32 37 44 44 44 44
29 30 30 29 29 28 23 21 18 14 10 7 11 9 16 8 4 7 5 9 12 17 20 25 18 10 10 11 18 11 21 24 29 13 17 23 29 31 45 34 35 38 35 36 35
28 30 33 29 26 15 23 27 26 11 8 21 27 21 30 21 19 13 7 8 8 12 9 16 8 21 37 21 15 12 22 22 16 19 18 23 22 27 24 18 20 30 30 34 38
28 31 30 26 22 12 17 20 19 21 23 34 35 42 41 39 37 33 26 26 15 8 8 9 23 27 15 16 18 21 22 23 14 13 14 21 18 24 22 18 31 33 33 34 34
27 29 27 20 15 13 18 20 23 26 10 28 26 24 31 31 32 33 32 29 16 14 13 16 15 16 21 20 21 25 25 19 21 12 22 15 16 20 20 16 23 26 27 30 23
26 28 22 21 10 14 17 24 23 21 4 10 24 15 23 14 24 33 37 31 17 18 15 15 18 21 21 26 20 23 17 23 21 13 18 7 18 25 16 17 16 23 32 36 33
25 25 17 12 17 13 21 23 20 9 4 14 8 8 19 14 15 15 20 15 16 15 12 24 14 10 20 22 18 25 14 19 14 17 16 17 10 26 11 12 6 10 24 27 25
22 18 15 12 14 23 26 17 13 2 4 9 6 12 14 10 8 12 9 18 9 13 13 16 22 18 20 17 20 17 17 19 14 12 11 20 15 30 16 14 9 10 24 26 29
19 11 9 9 12 18 18 14 2 1 15 9 19 17 17 20 17 15 13 17 8 7 12 13 18 16 20 17 19 15 11 7 9 10 17 14 13 22 6 14 18 14 21 26 24
17 7 8 6 9 16 16 2 3 7 17 22 18 11 9 17 13 15 14 13 14 11 6 9 10 9 10 18 11 13 14 10 13 13 16 12 10 10 17 16 32 30 26 9 19
14 5 4 3 7 10 10 2 5 10 13 18 20 11 10 16 4 9 13 8 10 5 2 3 7 12 16 18 15 21 17 18 17 11 7 7 14 22 27 22 15 8 9 29 32
19 12 7 11 9 7 2 4 8 16 23 14 15 13 9 16 9 10 4 8 10 2 6 4 9 10 17 15 14 10 12 6 11 14 14 6 10 11 10 19 18 10 11 27 35
10 6 7 7 4 2 0 4 20 23 29 0 7 14 10 11 9 13 7 10 11 12 14 8 4 14 10 4 9 10 14 11 6 10 12 5 9 15 16 14 14 10 27 33 36
7 3 6 6 3 2 2 15 24 22 26 12 11 11 3 13 11 8 12 2 4 4 11 4 3 7 12 16 16 14 20 16 9 13 10 4 9 2 4 9 12 19 30 34 39
16 9 9 3 2 2 9 13 18 19 13 12 10 13 12 9 4 10 8 9 12 6 3 3 3 5 6 7 9 8 12 13 6 6 20 10 13 6 10 6 12 18 30 33 38
8 4 8 12 14 10 10 9 15 14 15 17 14 13 8 7 7 7 4 7 13 12 11 3 3 7 7 14 10 11 20 16 12 10 7 18 19 10 18 7 17 24 32 35 35
4 5 13 4 11 15 12 9 14 17 13 18 5 10 14 12 16 13 11 7 11 7 3 3 6 8 15 20 11 13 19 19 17 14 12 11 11 12 9 15 19 29 31 32 33
8 7 12 20 19 17 4 3 11 15 15 10 12 14 12 13 17 14 15 13 8 4 5 5 4 7 14 18 10 14 20 20 19 21 15 20 15 10 10 21 17 27 31 30 33
9 11 10 8 12 10 11 12 9 18 5 21 19 11 12 17 23 26 25 22 16 14 6 7 5 4 5 5 7 5 17 21 15 17 18 19 9 6 9 8 9 24 28 31 32
Wind_Direction
337 335 333 332 328 327 326 324 322 322 317 310 308 310 306 293 282 277 268 263 258 245 235 234 245 218 197 229 227 232 229 254 252 253 264 297 312 326 309 303 302 315 319 319 308
338 336 334 333 332 330 326 322 321 316 315 313 310 306 304 303 289 279 273 271 261 240 237 225 228 233 226 222 218 225 225 228 243 259 274 289 309 293 305 308 315 296 306 290 299
351 347 344 339 336 335 332 328 323 319 314 310 308 305 305 306 307 287 282 272 254 236 232 235 236 236 231 231 222 229 239 242 253 258 271 283 292 295 296 295 287 293 233 280 269
352 349 346 343 339 336 333 331 328 324 318 314 310 304 299 296 257 161 117 332 317 227 222 227 231 255 258 229 230 240 236 238 249 256 269 274 282 284 286 282 295 297 295 292 277
354 352 349 346 343 339 333 328 324 321 319 315 310 307 304 259 241 222 306 315 325 226 212 219 230 240 252 263 235 235 243 244 247 249 254 264 265 266 269 279 284 283 287 288 289
356 351 347 345 341 336 330 325 322 316 312 310 307 302 293 260 278 242 258 261 262 245 223 221 231 236 272 258 251 262 251 246 245 248 254 257 263 265 260 266 281 283 285 291 285
354 350 346 343 339 334 327 319 314 309 307 307 301 292 268 257 284 254 231 231 204 222 240 235 240 226 211 250 258 266 272 277 255 245 250 263 271 259 272 277 281 282 289 286 276
353 349 345 343 341 337 328 320 311 297 292 299 302 278 256 313 309 277 235 249 240 231 241 237 249 275 268 264 263 264 275 258 258 258 256 255 262 270 270 273 279 282 276 273 269
353 349 344 343 337 337 332 331 334 297 279 290 294 268 267 326 266 304 261 242 242 244 256 254 259 265 278 255 262 231 238 250 255 241 247 237 267 269 269 262 258 259 262 264 264
350 346 342 341 336 337 344 352 356 304 307 291 288 271 267 243 309 258 260 228 238 244 251 230 232 234 237 225 220 216 223 234 246 242 237 238 250 263 264 261 256 261 259 257 264
343 343 346 344 340 347 351 1 9 358 344 293 277 229 273 274 304 289 236 258 267 232 226 248 218 219 222 220 239 260 236 245 247 237 257 254 260 269 265 258 264 275 268 273 258
345 348 341 341 342 357 348 341 353 320 296 285 275 270 264 266 279 280 277 284 268 237 224 233 229 231 242 236 235 246 264 261 271 249 251 257 254 255 253 256 253 253 255 264 266
345 344 339 350 349 359 343 345 337 334 309 302 291 262 268 243 253 258 253 250 248 251 244 233 247 228 238 232 237 229 240 254 258 287 284 298 292 278 281 274 264 256 260 264 250
346 344 342 353 14 359 352 337 333 339 308 319 352 1 343 238 252 260 255 232 226 239 244 260 255 241 250 230 233 242 233 239 254 252 257 248 271 265 269 266 261 267 267 265 263
348 343 354 351 337 347 330 332 329 345 311 338 288 344 338 4 330 329 289 233 223 226 217 242 274 257 250 249 227 250 236 251 241 241 258 252 262 267 211 238 270 267 255 259 264
348 346 357 13 355 345 325 339 321 38 311 303 315 327 335 334 330 308 330 306 241 229 254 262 247 252 264 275 240 262 242 251 259 258 260 238 233 266 243 248 243 257 265 269 269
344 347 354 347 353 326 6 359 359 75 302 350 351 360 355 358 333 329 286 234 283 227 233 254 267 248 251 266 269 258 225 245 237 233 239 218 235 239 259 222 239 245 255 270 266
338 322 347 331 354 333 353 357 11 328 334 330 340 13 355 4 334 327 322 316 189 236 300 268 276 272 257 234 263 252 230 217 214 219 251 262 243 238 242 245 243 254 258 210 137
338 344 316 333 312 351 6 351 346 348 284 331 327 335 339 354 339 353 335 322 305 87 319 14 257 282 302 302 231 252 251 230 252 279 245 244 236 264 259 257 252 220 180 129 131
328 313 272 237 329 18 51 256 302 328 343 14 323 330 349 326 333 353 320 283 333 113 177 297 290 274 286 313 301 258 251 241 221 234 255 243 243 253 274 249 228 192 136 133 136
336 288 185 264 5 324 127 269 317 344 317 211 273 329 339 337 331 322 270 329 9 337 348 345 263 272 290 246 272 290 242 243 278 210 235 254 268 254 245 213 193 157 142 137 139
10 297 225 329 248 182 273 316 317 325 350 335 323 333 358 284 312 316 341 240 303 296 306 32 292 290 285 276 268 272 283 239 225 228 238 215 265 249 109 146 135 144 143 141 146
337 282 261 293 287 277 294 329 324 335 325 312 338 318 1 335 342 315 327 237 247 272 275 35 308 302 285 232 226 248 268 247 236 241 223 237 242 304 295 158 137 141 138 138 142
334 317 354 323 351 336 329 313 323 317 322 341 321 317 309 302 287 261 268 305 232 269 284 151 257 250 277 301 312 291 316 325 262 237 229 227 259 282 270 209 131 138 140 143 145
322 336 3 319 329 308 321 286 316 327 338 325 302 323 318 315 303 301 314 278 264 155 103 130 257 252 274 283 279 266 284 299 304 261 230 233 263 224 268 140 138 140 139 143 142
340 339 325 299 308 305 48 293 303 318 329 312 317 332 330 294 292 320 308 304 285 203 160 203 256 268 286 275 194 251 268 281 278 281 267 247 245 289 258 130 132 142 142 144 149
321 322 320 285 308 323 327 346 298 309 306 315 310 342 302 297 310 301 289 276 270 267 251 201 237 323 289 182 163 298 256 264 261 274 276 243 196 228 96 73 139 140 145 149 153